This is the latest recevied weather packets stored in our database for station/object KC3QLX. If no packets are shown the sender has not sent any weather packets the latest 10 day(s).
| Time | Temp. | Humidity | Pressure | Rain* | Wind** | Luminosity | Snow |
|---|---|---|---|---|---|---|---|
| 1777499494 | 11.11° C | 99% | 1009.2 hPa | 0 mm | - | 31 W/m² | - |
| 1777499193 | 11.11° C | 99% | 1009.2 hPa | 0 mm | - | 48 W/m² | - |
| 1777498889 | 11.11° C | 99% | 1009.4 hPa | 0 mm | - | 51 W/m² | - |
| 1777498586 | 11.11° C | 99% | 1009.2 hPa | 0 mm | - | 68 W/m² | - |
| 1777498282 | 11.11° C | 99% | 1009.3 hPa | 1.78 mm | - | 55 W/m² | - |
| 1777497981 | 11.11° C | 99% | 1009.6 hPa | 1.78 mm | - | 46 W/m² | - |
| 1777497676 | 11.11° C | 99% | 1009.5 hPa | 0 mm | - | 48 W/m² | - |
| 1777497373 | 11.11° C | 99% | 1009.2 hPa | 0 mm | - | 73 W/m² | - |
| 1777497069 | 11.11° C | 99% | 1009.6 hPa | 0 mm | - | 48 W/m² | - |
| 1777496766 | 11.11° C | 99% | 1009.8 hPa | 0 mm | - | 58 W/m² | - |
| 1777496463 | 11.11° C | 99% | 1009.6 hPa | 0 mm | - | 106 W/m² | - |
| 1777496159 | 11.11° C | 99% | 1009.7 hPa | 0 mm | - | 69 W/m² | - |
| 1777495855 | 11.11° C | 99% | 1009.9 hPa | 0 mm | - | 52 W/m² | - |
| 1777495551 | 11.11° C | 99% | 1009.8 hPa | 0 mm | - | 34 W/m² | - |
| 1777495247 | 11.11° C | 99% | 1010 hPa | 0 mm | - | 31 W/m² | - |
| 1777494945 | 11.11° C | 99% | 1010.1 hPa | 0 mm | - | 37 W/m² | - |
| 1777494642 | 11.11° C | 99% | 1009.8 hPa | 0 mm | - | 36 W/m² | - |
| 1777494339 | 11.11° C | 99% | 1010.1 hPa | 0 mm | - | 56 W/m² | - |
| 1777494036 | 11.11° C | 99% | 1010.1 hPa | 0 mm | - | 75 W/m² | - |
| 1777493734 | 11.11° C | 99% | 1010 hPa | 1.27 mm | - | 65 W/m² | - |
| 1777493432 | 11.11° C | 99% | 1010.2 hPa | 1.27 mm | - | 73 W/m² | - |
| 1777493127 | 11.11° C | 99% | 1010.1 hPa | 0 mm | - | 68 W/m² | - |
| 1777492824 | 11.11° C | 99% | 1010.5 hPa | 0 mm | - | 55 W/m² | - |
| 1777492520 | 11.11° C | 99% | 1010.7 hPa | 0 mm | - | 63 W/m² | - |
| 1777492216 | 11.11° C | 99% | 1011.1 hPa | 0 mm | - | 42 W/m² | - |
* Rain latest hour (hover to see other rain measurements)
** Current wind speed in m/s (hover to see current wind gust speed)